DateTimeUTC,F1_A11,F1_S11,BsB_S11,BsG_S11,BsR_S11,BbsB_S11,BbsG_S11,BbsR_S11,BaB_A11,BaG_A11,BaR_A11,Tu_S11,T_S11,Uu_S11,U_S11,P_S11,T1_A11
2021-06-03T09:00:00Z,00000200,20000000,,,,,,,-000.18,-000.10,0000.16,16.0,23.2,01.6,01.0,0665.5,30.8
2021-06-03T09:01:00Z,00000200,20000000,,,,,,,0000.28,-000.35,-000.35,16.0,23.2,01.6,01.0,0665.5,30.8
2021-06-03T09:02:00Z,00000200,20000000,,,,,,,-000.13,0000.30,0000.22,16.0,23.3,01.6,01.0,0665.5,30.8
2021-06-03T09:03:00Z,00000200,60000000,,,,,,,0000.36,0000.56,0000.39,16.0,23.3,01.6,01.0,0665.5,30.8
2021-06-03T09:04:00Z,00000200,41000000,0001.41,0000.61,0000.37,-000.10,-000.32,0000.07,0000.37,0000.19,0000.16,16.1,23.0,01.7,01.1,0666.4,30.8
2021-06-03T09:05:00Z,00000200,01000000,0000.51,0000.59,0000.67,-000.06,0000.14,0000.02,0000.18,-000.00,0000.40,16.2,23.0,01.8,01.2,0666.5,30.8
2021-06-03T09:06:00Z,00000200,00000000,0000.57,0000.73,0000.11,-000.09,0000.32,-000.05,0000.90,0000.83,0000.42,16.2,23.0,01.9,01.2,0666.5,30.8
2021-06-03T09:07:00Z,00000200,00000000,0001.33,0000.56,0000.46,0000.05,-000.08,0000.17,0000.20,0000.65,0000.32,16.2,23.0,02.0,01.3,0666.5,30.8
2021-06-03T09:08:00Z,00000200,00000000,0001.28,0000.66,0000.30,-000.04,0000.00,0000.05,0000.46,0000.63,0000.20,16.3,23.0,02.1,01.4,0666.6,30.8
2021-06-03T09:09:00Z,00000200,00000000,0001.33,0000.35,0000.78,0000.01,0000.14,-000.10,-000.11,-000.55,0000.24,16.4,23.0,02.1,01.4,0666.6,30.9
2021-06-03T09:10:00Z,00000200,00000000,0001.06,0000.65,0000.20,-000.09,-000.21,0000.03,0000.33,0000.44,0000.13,16.4,23.0,02.0,01.3,0666.5,30.9
2021-06-03T09:11:00Z,00000200,00000000,0001.00,0001.11,0000.40,-000.43,0000.04,-000.06,0000.23,0000.23,-000.32,16.5,23.1,02.0,01.3,0666.6,30.9
2021-06-03T09:12:00Z,00000200,00000000,0001.24,0000.69,0000.71,-000.08,0000.10,0000.09,-000.16,-000.31,0000.19,16.5,23.1,02.0,01.3,0666.6,30.9
2021-06-03T09:13:00Z,00000200,01000000,0001.37,0000.79,0000.15,-000.02,0000.02,-000.13,-000.27,-000.11,-000.23,16.5,23.1,02.0,01.3,0666.6,30.9
2021-06-03T09:14:00Z,00000200,00000000,0001.35,0000.52,0000.37,-000.34,0000.28,-000.20,0000.39,-000.10,0000.30,16.5,23.1,02.1,01.4,0666.6,30.9
2021-06-03T09:15:00Z,00000200,00000000,0001.40,0000.57,0000.44,-000.39,0000.00,-000.14,0000.48,0000.96,0000.29,16.5,23.0,02.1,01.4,0666.6,30.9
2021-06-03T09:16:00Z,00000200,00000000,0000.52,0000.74,0000.37,-000.32,0000.01,-000.10,0000.45,0000.41,0000.16,16.4,23.0,02.2,01.5,0666.6,30.9
2021-06-03T09:17:00Z,00000200,00000000,0001.30,0000.52,0000.58,0000.19,-000.11,0000.07,0000.34,-000.11,0000.36,16.4,23.0,02.3,01.5,0666.6,30.8
2021-06-03T09:18:00Z,00000200,00000000,0001.37,0000.68,0000.36,0000.34,0000.13,-000.03,0000.19,0000.29,0000.09,16.4,23.0,02.4,01.6,0666.6,30.8
2021-06-03T09:19:00Z,00000200,00000000,0001.12,0000.51,0000.43,-000.33,-000.07,0000.08,0000.28,0000.60,0000.69,16.4,23.0,02.4,01.6,0666.6,30.8
2021-06-03T09:20:00Z,00000200,00000000,0001.58,0000.95,0000.17,-000.39,-000.01,-000.05,0000.22,0000.01,-000.20,16.4,23.0,02.4,01.6,0666.6,30.8
2021-06-03T09:21:00Z,00000200,00000000,0001.35,0000.86,0000.34,0000.36,0000.14,0000.16,0000.24,-000.21,0000.12,16.4,23.0,02.5,01.7,0666.6,30.9
2021-06-03T09:22:00Z,00000200,00000000,0001.04,0000.73,0000.34,-000.05,0000.03,-000.24,0000.09,0000.29,0000.35,16.4,23.0,02.5,01.6,0666.6,30.8
2021-06-03T09:23:00Z,00000200,00000000,0000.96,0000.98,0000.33,-000.20,0000.13,0000.13,-000.02,0000.24,-000.07,16.4,23.0,02.5,01.6,0666.6,30.8
2021-06-03T09:24:00Z,00000200,00000000,0001.65,0000.78,0000.42,0000.21,-000.23,-000.08,0000.33,0000.32,0000.55,16.4,23.0,02.4,01.6,0666.6,30.8
2021-06-03T09:25:00Z,00000200,00000000,0001.69,0000.65,0000.57,-000.02,0000.09,0000.02,0000.27,0000.30,-000.26,16.4,23.0,02.4,01.6,0666.7,30.8
2021-06-03T09:26:00Z,00000200,00000000,0001.08,0000.72,0000.67,-000.06,0000.07,-000.09,0000.56,0000.23,0000.30,16.4,23.0,02.6,01.7,0666.6,30.8
2021-06-03T09:27:00Z,00000200,00000000,0001.29,0001.00,0000.51,-000.33,0000.17,0000.07,0000.63,0000.32,0000.09,16.4,23.0,02.7,01.8,0666.6,30.8
2021-06-03T09:28:00Z,00000200,00000000,0001.56,0000.78,0000.48,0000.03,-000.01,-000.27,0000.09,0000.55,0000.65,16.4,22.9,02.8,01.8,0666.6,30.8
2021-06-03T09:29:00Z,00000200,00000000,0001.42,0000.63,0000.52,-000.16,0000.38,-000.04,0000.94,0000.81,0000.63,16.4,22.9,03.0,02.0,0666.7,30.8
2021-06-03T09:30:00Z,00000200,00000000,0001.39,0001.00,0000.35,0000.33,0000.15,-000.17,-000.05,0000.34,0000.22,16.3,22.9,03.1,02.1,0666.6,30.8
2021-06-03T09:31:00Z,00000200,00000000,0001.65,0000.97,0000.48,-000.29,0000.34,0000.17,0000.53,0000.46,0000.39,16.3,22.9,03.3,02.2,0666.7,30.8
2021-06-03T09:32:00Z,00000200,00000000,0001.69,0001.02,0000.40,0000.20,0000.08,-000.25,0000.65,0000.02,0000.29,16.3,22.9,03.3,02.2,0666.7,30.9
2021-06-03T09:33:00Z,00000200,00000000,0001.12,0000.64,0000.37,-000.64,-000.05,0000.03,0000.24,0000.39,0000.19,16.3,22.9,03.4,02.3,0666.7,30.8
2021-06-03T09:34:00Z,00000200,00000000,0001.41,0000.41,0000.49,-000.21,-000.04,0000.03,0000.01,0000.31,0000.13,16.3,22.9,03.5,02.3,0666.7,30.8
2021-06-03T09:35:00Z,00000200,00000000,0000.57,0000.67,0000.26,-000.10,0000.17,0000.05,0000.36,-000.03,-000.18,16.3,22.9,03.3,02.2,0666.7,30.8
2021-06-03T09:36:00Z,00000200,00000000,0002.32,0000.71,0000.49,0000.49,0000.04,-000.10,0000.38,0000.86,0000.51,16.3,22.9,03.4,02.3,0666.7,30.8
2021-06-03T09:37:00Z,00000200,00000000,0001.59,0000.73,0000.67,-000.21,0000.19,0000.11,0000.23,0000.10,0000.35,16.4,22.9,03.4,02.2,0666.7,30.8
2021-06-03T09:38:00Z,00000200,00000000,0001.89,0000.96,0000.66,0000.03,0000.28,0000.17,0000.37,0000.34,0000.35,16.5,23.0,03.4,02.3,0666.7,30.8
2021-06-03T09:39:00Z,00000200,00000000,0001.77,0000.35,0000.63,-000.40,0000.30,-000.12,0000.15,-000.18,-000.05,16.5,23.0,03.3,02.2,0666.7,30.9
2021-06-03T09:40:00Z,00000200,00000000,0001.89,0000.86,0000.39,0000.23,0000.28,-000.03,0000.36,0000.60,0000.57,16.6,23.0,03.3,02.2,0666.7,30.9
2021-06-03T09:41:00Z,00000200,00000000,0001.87,0000.85,0000.73,-000.27,0000.07,0000.06,-000.00,-000.05,-000.18,16.6,23.1,03.2,02.2,0666.7,30.9
2021-06-03T09:42:00Z,00000200,00000000,0000.93,0000.86,0000.44,-000.18,-000.05,0000.01,0000.47,0000.40,0000.28,16.6,23.1,03.3,02.2,0666.7,30.9
2021-06-03T09:43:00Z,00000200,00000000,0001.24,0000.80,0000.62,-000.05,-000.03,0000.02,0000.44,0000.35,0000.13,16.6,23.1,03.5,02.3,0666.7,30.9
2021-06-03T09:44:00Z,00000200,00000000,0000.93,0000.71,0000.40,0000.01,0000.08,0000.09,0000.22,-000.08,0000.17,16.6,23.1,03.4,02.3,0666.8,30.9
2021-06-03T09:45:00Z,00000200,00000000,0001.43,0000.42,0000.47,-000.13,0000.16,-000.14,0000.04,0000.45,0000.18,16.6,23.1,03.6,02.4,0666.8,30.9
2021-06-03T09:46:00Z,00000200,00000000,0001.21,0001.06,0000.36,-000.01,0000.18,0000.20,0000.34,0000.31,0000.40,16.6,23.1,03.7,02.5,0666.8,30.9
2021-06-03T09:47:00Z,00000200,00000000,0001.47,0000.70,0000.25,0000.70,0000.27,-000.07,-000.08,-000.03,-000.18,16.6,23.1,03.8,02.5,0666.8,30.9
2021-06-03T09:48:00Z,00000200,00000000,0000.40,0000.87,0000.63,0000.29,0000.08,0000.07,0000.21,0000.09,-000.12,16.6,23.1,03.6,02.4,0666.8,30.9
2021-06-03T09:49:00Z,00000200,00000000,0001.86,0000.90,0000.35,-000.40,0000.13,-000.12,0000.12,-000.01,-000.15,16.6,23.1,03.4,02.3,0666.8,30.9
2021-06-03T09:50:00Z,00000200,00000000,0001.18,0000.58,0000.52,0000.06,0000.01,0000.23,0000.26,0000.48,0000.62,16.6,23.1,03.4,02.3,0666.8,30.9
2021-06-03T09:51:00Z,00000200,00000000,0001.42,0000.84,0000.55,0000.51,0000.23,0000.14,0000.09,-000.24,-000.21,16.6,23.1,03.5,02.3,0666.8,30.9
2021-06-03T09:52:00Z,00000200,00000000,0001.19,0000.72,0000.57,0000.55,0000.17,0000.10,0000.05,0000.45,0000.45,16.6,23.1,03.4,02.3,0666.8,30.9
2021-06-03T09:53:00Z,00000200,00000000,0000.71,0000.40,0000.34,0000.03,0000.17,-000.15,0000.42,-000.25,-000.04,16.6,23.1,03.4,02.3,0666.8,30.9
2021-06-03T09:54:00Z,00000200,00000000,0001.63,0000.86,0000.38,-000.21,0000.23,-000.01,0000.30,0000.59,0000.33,16.6,23.1,03.4,02.3,0666.8,30.9
2021-06-03T09:55:00Z,00000200,00000000,0001.37,0000.65,0000.58,0000.01,0000.22,0000.07,-000.14,-000.31,0000.01,16.6,23.1,03.4,02.3,0666.8,30.9
2021-06-03T09:56:00Z,00000200,00000000,0001.40,0000.81,0000.48,-000.20,0000.22,0000.04,0000.09,0000.04,-000.06,16.6,23.1,03.3,02.2,0666.8,30.9
2021-06-03T09:57:00Z,00000200,40000000,,,,,,,-001.08,-000.64,-000.68,16.6,23.1,03.6,02.4,0666.9,30.9
2021-06-03T09:58:00Z,00000200,60000000,,,,,,,-000.13,0000.18,0000.04,16.3,23.2,02.9,01.9,0665.8,30.9
2021-06-03T09:59:00Z,00000200,20000000,,,,,,,0000.39,-000.22,-000.01,16.3,23.3,02.9,01.9,0665.8,30.9
